Location: Drouwen
(52.9559°N, 6.7974°E)
Time: 15:22:28
(UTC+00:00)

Helios 1A - Pass Details

Date: 15 May 2026
Orbit: 540 x 559 km, 98.2° (Epoch: 10 June)

Event Time Altitude Azimuth Distance (km) Brightness Sun altitude
Rises 22:10:30 0° 15° (NNE) 2,719 7.3 -16.0°
Reaches altitude 10° 22:12:38 10° 16° (NNE) 1,820 6.3 -16.1°
Maximum altitude 22:16:34 86° 106° (ESE) 550 2.7 -16.3°
Enters shadow 22:18:27 30° 193° (SSW) 997 3.6 -16.4°
